Location: Gleizolles
(44.4833°N, 6.7667°E)
Time: 01:40:30
(UTC+00:00)

S-56A Canister/Altair - Pass Details

Date: 03 July 2024
Orbit: 638 x 2488 km, 38.9° (Epoch: 24 July)

Event Time Altitude Azimuth Distance (km) Brightness Sun altitude
Rises 15:16:16 0° 188° (S) 3,002 10.7 40.7°
Reaches altitude 10° 15:20:34 10° 150° (SSE) 2,296 9.9 39.9°
Maximum altitude 15:21:46 11° 136° (SE) 2,320 9.8 39.7°
Drops below altitude 10° 15:23:02 10° 123° (ESE) 2,458 9.9 39.5°
Sets 15:28:26 0° 88° (E) 3,836 10.6 38.5°
